Regional Weather Roundup
Issued by NWS Glasgow, MT

Home | Current Version | Previous Version | Text Only | Print | Product List | Glossary On
Versions: 1 2 3 4 5 6 7 8 9 10 11 12 13 14 15 16 17 18 19 20 21 22 23 24 25 26 27
000
ASUS45 KGGW 250715
RWRGGW
HOURLY REGIONAL WEATHER ROUNDUP FOR NORTHEAST MONTANA
NATIONAL WEATHER SERVICE GLASGOW MONTANA
100 AM MDT TUE APR 25 2017

NOTE: "FAIR" INDICATES FEW OR NO CLOUDS BELOW 12,000 FEET WITH NO
SIGNIFICANT WEATHER AND/OR OBSTRUCTIONS TO VISISBILITY.

NORTHEAST MONTANA


CITY           SKY/WX    TMP DP  RH WIND       PRES   REMARKS
GLASGOW        CLOUDY    30  24  78 E15       29.83R
PLENTYWOOD       N/A     29  28  96 E13G21      N/A
WOLF POINT     CLOUDY    31  26  82 E15       29.85R
JORDAN           N/A     32  27  81 NE14      29.77R
WINNETT          N/A     37  33  85 E12G20      N/A
SIDNEY         CLOUDY    31  27  85 NE13      29.83R
GLENDIVE       CLOUDY    31  26  82 NE14      29.78R
MALTA            N/A     32  27  81 E6G15       N/A

FORT PECK REPORTS


CITY           SKY/WX    TMP DP  RH WIND       PRES   REMARKS
FORT PECK        N/A     31  27  85 NE16G24     N/A
THE PINES        N/A     32  27  81 N3          N/A

SOUTHEAST MONTANA


CITY           SKY/WX    TMP DP  RH WIND       PRES   REMARKS
BILLINGS       LGT RAIN  41  39  93 NE17      29.65R
MILES CITY     CLOUDY    37  30  75 NE12      29.72R
BAKER          CLOUDY    31  27  85 E13       29.73R
LIVINGSTON     RAIN      36  34  92 S10       29.64S

CENTRAL MONTANA


CITY           SKY/WX    TMP DP  RH WIND       PRES   REMARKS
HAVRE          CLOUDY    34  29  82 E23       29.74R
LEWISTOWN      CLOUDY    37  36  96 E17       29.69R
GREAT FALLS    CLOUDY    41  37  86 N6        29.70R
CUT BANK       CLOUDY    38  37  97 N8        29.71R
HELENA         CLOUDY    45  37  73 NW8       29.67R
BUTTE          LGT RAIN  33  32  96 SE3       29.69R FOG
BOZEMAN        CLOUDY    42  37  82 CALM      29.64R

WESTERN MONTANA


CITY           SKY/WX    TMP DP  RH WIND       PRES   REMARKS
MISSOULA       CLOUDY    41  39  93 NW3       29.75R
KALISPELL      NOT AVBL

NORTH DAKOTA


CITY           SKY/WX    TMP DP  RH WIND       PRES   REMARKS
WILLISTON      CLOUDY    31  25  78 NE10      29.84S
DICKINSON      CLOUDY    28  26  92 NE14      29.73S
MINOT          CLOUDY    32  27  81 N14       29.81S
BISMARCK       CLOUDY    34  29  82 N16       29.76S

SOUTHERN SASKATCHEWAN


CITY           SKY/WX    TMP DP  RH WIND       PRES   REMARKS
REGINA         CLOUDY    27  21  80 E13       29.94R
ESTEVAN        FLURRIES  27  23  86 NE14      29.89R
SWIFT CURRENT  CLOUDY    27  25  93 E13G20    29.86R





USA.gov is the U.S. government's official web portal to all federal, state and local government web resources and services.